This is the latest recevied weather packets stored in our database for station/object W5ITZ. If no packets are shown the sender has not sent any weather packets the latest 10 day(s).
| Time | Temp. | Humidity | Pressure | Rain* | Wind** | Luminosity | Snow |
|---|---|---|---|---|---|---|---|
| 1777650108 | 19.44° C | 89% | 1011 hPa | 0 mm | - | 8 W/m² | - |
| 1777649806 | 19.44° C | 89% | 1011.3 hPa | 0 mm | - | 8 W/m² | - |
| 1777649503 | 19.44° C | 89% | 1010.9 hPa | 0 mm | - | 14 W/m² | - |
| 1777649199 | 19.44° C | 90% | 1010.4 hPa | 0 mm | - | 36 W/m² | - |
| 1777648896 | 20° C | 90% | 1010.1 hPa | 0 mm | - | 56 W/m² | - |
| 1777648290 | 20° C | 90% | 1009.6 hPa | 0 mm | - | 67 W/m² | - |
| 1777647986 | 20° C | 90% | 1009.8 hPa | 0 mm | - | 80 W/m² | - |
| 1777647683 | 19.44° C | 90% | 1009.5 hPa | 0 mm | - | 99 W/m² | - |
| 1777647379 | 19.44° C | 90% | 1009.7 hPa | 0 mm | - | 69 W/m² | - |
| 1777647077 | 19.44° C | 90% | 1009.9 hPa | 0 mm | - | 58 W/m² | - |
| 1777646773 | 19.44° C | 90% | 1009.5 hPa | 0 mm | - | 93 W/m² | - |
| 1777646473 | 19.44° C | 90% | 1009.6 hPa | 0 mm | - | 123 W/m² | - |
| 1777646169 | 19.44° C | 91% | 1010 hPa | 0 mm | - | 93 W/m² | - |
| 1777645867 | 19.44° C | 91% | 1009.9 hPa | 0 mm | - | 69 W/m² | - |
| 1777645564 | 19.44° C | 91% | 1010.3 hPa | 0 mm | - | 88 W/m² | - |
| 1777645259 | 19.44° C | 91% | 1009.8 hPa | 0 mm | - | 116 W/m² | - |
| 1777644956 | 19.44° C | 91% | 1010.1 hPa | 0 mm | - | 141 W/m² | - |
| 1777644654 | 19.44° C | 91% | 1010.2 hPa | 0 mm | - | 177 W/m² | - |
| 1777644349 | 19.44° C | 92% | 1010.3 hPa | 0 mm | - | 141 W/m² | - |
| 1777644045 | 19.44° C | 92% | 1010.7 hPa | 0 mm | - | 57 W/m² | - |
| 1777643743 | 19.44° C | 91% | 1010.9 hPa | 0 mm | - | 68 W/m² | - |
| 1777643440 | 19.44° C | 92% | 1011.2 hPa | 0 mm | - | 38 W/m² | - |
| 1777643137 | 19.44° C | 91% | 1011.2 hPa | 0 mm | - | 54 W/m² | - |
| 1777642833 | 19.44° C | 91% | 1011.3 hPa | 0 mm | - | 80 W/m² | - |
| 1777642531 | 19.44° C | 91% | 1011.3 hPa | 0 mm | - | 48 W/m² | - |
* Rain latest hour (hover to see other rain measurements)
** Current wind speed in m/s (hover to see current wind gust speed)